[[{"header":{"parameterUnit":"m.s-1","parameterCategory":2,"la1":30.2991,"la2":30.254,"lo1":-89.0895,"lo2":-89.0444,"dy":0.0017,"dx":0.0017,"nx":28,"ny":28,"refTime":"2024-06-03T03:00:00:Z","depth":"0","parameterNumber":2,"parameterNumberName":"U-component_of_CURRENTS"},"data":[0,0,0,0,0,0,0,0,0,0,0,0,0,0,0,0,0,0,0,0,0,0,0,0,0,0,0,0,0,0,0,0,0,0,0,0,0,0,0,0,0,0,0,0,0,0,0,0,0,0,0,0,0,0,0,0,0,0,-0.2466,-0.2467,0,-0.2505,-0.2505,-0.2505,-0.2488,-0.2487,-0.2487,-0.2486,-0.245,-0.245,-0.245,0,0,0,0,0,0,0,0,0,0,0,0,0,-0.2368,-0.237,-0.2466,-0.2467,-0.2468,-0.2505,-0.2505,-0.2505,-0.2488,-0.2487,-0.2487,-0.2486,-0.245,-0.245,-0.245,0,0,0,0,0,0,0,0,0,0,0,0,0,-0.2407,-0.2371,-0.2466,-0.2466,-0.2466,-0.2505,-0.2505,-0.2506,-0.2488,-0.2487,-0.2486,-0.2485,-0.2451,-0.245,-0.245,-0.2468,0,0,-0.2448,-0.2448,0,0,0,0,0,0,0,0,-0.2405,-0.241,-0.2465,-0.2466,-0.2467,-0.2493,-0.2458,-0.249,-0.2489,-0.2477,-0.2486,-0.2485,-0.246,-0.2459,-0.2466,-0.2467,-0.2465,-0.2448,-0.2448,-0.2448,-0.2448,0,0,0,0,0,0,0,-0.2402,-0.2408,-0.2479,-0.2466,-0.2467,-0.2461,-0.2465,-0.2464,-0.2471,-0.2478,-0.2478,-0.2487,-0.246,-0.2466,-0.2465,-0.2465,-0.2448,-0.2448,-0.2448,-0.2447,-0.2484,-0.2485,0,0,0,0,0,0,-0.2405,-0.2406,-0.2478,-0.248,-0.2435,-0.2463,-0.2468,-0.2483,-0.2472,-0.2471,-0.2487,-0.2486,-0.2468,-0.2465,-0.2463,-0.2489,-0.2448,-0.2447,-0.2447,-0.2483,-0.2484,-0.2486,0,0,0,0,0,0,-0.2403,-0.2411,-0.2476,-0.2445,-0.2454,-0.2467,-0.2484,-0.2485,-0.2487,-0.2481,-0.2477,-0.2489,-0.2467,-0.2464,-0.2468,-0.2487,-0.2447,-0.2447,-0.2481,-0.2483,-0.2485,-0.2538,0,0,0,0,0,0,-0.24,-0.241,-0.2412,-0.2446,-0.2456,-0.2503,-0.2485,-0.2486,-0.2496,-0.2494,-0.2481,-0.2477,-0.2466,-0.2469,-0.2467,-0.2486,-0.2447,-0.248,-0.2482,-0.2484,-0.2535,-0.2541,-0.2547,0,0,0,0,0,-0.2396,-0.241,-0.2413,-0.2421,-0.2462,-0.2504,-0.2508,-0.2511,-0.2497,-0.2507,-0.2498,-0.2477,-0.2482,-0.2469,-0.2467,-0.2486,-0.2479,-0.2482,-0.2484,-0.2532,-0.254,-0.2547,0,0,0,0,0,0,-0.2366,-0.2411,-0.2414,-0.2439,-0.247,-0.2502,-0.2509,-0.2513,-0.2516,-0.2507,-0.2491,-0.2488,-0.25,-0.2488,-0.2474,-0.2505,-0.2478,-0.248,-0.2515,-0.2522,-0.2528,-0.2524,-0.2446,0,0,0,0,0,-0.2363,-0.2384,-0.2427,-0.2445,-0.2462,-0.2484,-0.2497,-0.2507,-0.2519,-0.2519,-0.2512,-0.2506,-0.2513,-0.2512,-0.2513,-0.2528,-0.2506,-0.254,-0.2547,-0.2552,-0.2548,-0.2548,-0.2554,-0.2495,-0.2495,-0.2495,0,0,-0.2352,-0.2382,-0.239,-0.2439,-0.2459,-0.2497,-0.2488,-0.2517,-0.2543,-0.2515,-0.2532,-0.2526,-0.2522,-0.2542,-0.2546,-0.2532,-0.2556,-0.2556,-0.256,-0.2553,-0.2552,-0.2557,-0.2562,-0.2497,-0.2496,-0.2496,0,0,-0.2359,-0.2374,-0.2399,-0.2433,-0.2477,-0.2499,-0.2509,-0.2546,-0.2552,-0.2577,-0.2565,-0.2571,-0.2576,-0.2583,-0.2585,-0.2627,-0.2589,-0.2627,-0.2654,-0.2655,-0.2659,-0.2663,-0.2633,-0.2634,-0.2631,-0.2631,-0.2631,0,-0.234,-0.2384,-0.2411,-0.2454,-0.248,-0.2503,-0.254,-0.2563,-0.2592,-0.26,-0.2586,-0.2604,-0.2598,-0.2628,-0.2642,-0.2641,-0.2621,-0.2626,-0.2662,-0.2665,-0.2668,-0.2637,-0.2637,-0.2634,-0.2633,-0.2633,-0.2633,0,-0.2377,-0.2409,-0.243,-0.249,-0.2523,-0.2558,-0.2603,-0.2626,-0.2631,-0.2648,-0.267,-0.2668,-0.2674,-0.2683,-0.2673,-0.2699,-0.2671,-0.2669,-0.264,-0.2677,-0.2642,-0.2641,-0.2638,-0.2637,-0.2636,-0.2635,0,0,-0.2329,-0.2434,-0.2435,-0.2468,-0.2543,-0.2572,-0.2626,-0.2673,-0.2693,-0.2714,-0.2732,-0.2754,-0.274,-0.2743,-0.2737,-0.274,-0.2741,-0.2712,-0.2711,-0.2677,-0.2717,-0.2632,-0.2623,-0.2745,-0.2745,-0.2745,-0.268,0,-0.2339,-0.2419,-0.2471,-0.253,-0.2571,-0.262,-0.2666,-0.2712,-0.2734,-0.2756,-0.2765,-0.2775,-0.2769,-0.2764,-0.2772,-0.275,-0.2742,-0.2757,-0.269,-0.2688,-0.2605,-0.2621,-0.2513,-0.244,-0.2678,-0.2678,-0.2678,0,-0.2344,-0.24,-0.2467,-0.2552,-0.2572,-0.2612,-0.2673,-0.2716,-0.2767,-0.2781,-0.2803,-0.2803,-0.2818,-0.2798,-0.2784,-0.2792,-0.2754,-0.2734,-0.2731,-0.2632,-0.2602,-0.2445,-0.2429,-0.2418,-0.2676,-0.2676,-0.2676,0,-0.2281,-0.2382,-0.2431,-0.2464,-0.2572,-0.2601,-0.2645,-0.2711,-0.2744,-0.2784,-0.2802,-0.2823,-0.2821,-0.2802,-0.2764,-0.2771,-0.2728,-0.2733,-0.2621,-0.2613,-0.2496,-0.2478,-0.2456,-0.2711,-0.2711,-0.2711,-0.2711,0,-0.2263,-0.2293,-0.2404,-0.243,-0.2472,-0.256,-0.2601,-0.2648,-0.2717,-0.2741,-0.2795,-0.2805,-0.2822,-0.2804,-0.2765,-0.268,-0.2727,-0.2616,-0.2594,-0.251,-0.2495,-0.2459,-0.2485,-0.2709,-0.2709,-0.271,-0.271,0,-0.2177,-0.2259,-0.231,-0.2418,-0.2445,-0.2465,-0.2564,-0.2592,-0.2674,-0.2705,-0.2716,-0.2787,-0.2758,-0.2754,-0.271,-0.2667,-0.2553,-0.2557,-0.2442,-0.2406,-0.2285,-0.2318,-0.2261,-0.2197,-0.242,-0.2418,-0.2416,0,-0.2142,-0.2164,-0.2265,-0.2285,-0.2328,-0.2384,-0.242,-0.2535,-0.2568,-0.2675,-0.2671,-0.2694,-0.2671,-0.2595,-0.2516,-0.2423,-0.2442,-0.2282,-0.2281,-0.2255,-0.2276,-0.231,-0.2264,-0.2143,-0.2139,-0.2136,-0.2133,0,-0.205,-0.2084,-0.2121,-0.2175,-0.2214,-0.2264,-0.2324,-0.2361,-0.2483,-0.2527,-0.2561,-0.2561,-0.2505,-0.238,-0.2284,-0.2213,-0.223,-0.2207,-0.2219,-0.2084,-0.2081,-0.2016,-0.2203,-0.2103,-0.2106,-0.2109,-0.211,-0.2111,-0.1946,-0.1947,-0.1998,-0.203,-0.2078,-0.2115,-0.2106,-0.2194,-0.2237,-0.227,-0.2363,-0.2321,-0.2277,-0.2123,-0.206,-0.1925,-0.199,-0.1872,-0.1919,-0.196,-0.1886,-0.1991,-0.1848,-0.1849,-0.185,-0.1852,-0.1853,0,-0.181,-0.1828,-0.1853,-0.1885,-0.1874,-0.1956,-0.2008,-0.1982,-0.1976,-0.2051,-0.205,-0.202,-0.1906,-0.188,-0.1767,-0.1681,-0.1652,-0.1645,-0.1684,-0.1653,-0.1762,-0.1737,-0.1516,-0.1516,-0.1516,-0.1516,-0.1516,-0.1516,-0.1739,-0.171,-0.1731,-0.1663,-0.1681,-0.1618,-0.1616,-0.1609,-0.1634,-0.1615,-0.1623,-0.1661,-0.1685,-0.1806,-0.1693,-0.1602,-0.1583,-0.1517,-0.156,-0.1667,-0.1693,-0.1718,-0.1699,-0.1474,-0.1474,-0.1381,-0.1381,-0.1381]},{"header":{"parameterUnit":"m.s-1","parameterCategory":2,"la1":30.2991,"la2":30.254,"lo1":-89.0895,"lo2":-89.0444,"dy":0.0017,"dx":0.0017,"nx":28,"ny":28,"refTime":"2024-06-03T03:00:00:Z","depth":"0","parameterNumber":3,"parameterNumberName":"V-component_of_CURRENTS"},"data":[0,0,0,0,0,0,0,0,0,0,0,0,0,0,0,0,0,0,0,0,0,0,0,0,0,0,0,0,0,0,0,0,0,0,0,0,0,0,0,0,0,0,0,0,0,0,0,0,0,0,0,0,0,0,0,0,0,0,-0.0065,-0.0064,0,0.0015,0.0016,0.0017,0.008,0.0081,0.0081,0.0082,0.0201,0.0204,0.0207,0,0,0,0,0,0,0,0,0,0,0,0,0,-0.0112,-0.0112,-0.0065,-0.0064,-0.0063,0.0015,0.0016,0.0017,0.008,0.0081,0.0081,0.0082,0.02,0.0203,0.0207,0,0,0,0,0,0,0,0,0,0,0,0,0,-0.0066,-0.0112,-0.0065,-0.0024,-0.002,0.0014,0.0016,0.0018,0.008,0.0081,0.0082,0.0082,0.0199,0.0203,0.0207,0.0221,0,0,0.022,0.0222,0,0,0,0,0,0,0,0,-0.0069,-0.0064,-0.0031,-0.0027,-0.0022,0.0036,0.0043,0.0087,0.008,0.0045,0.0082,0.0082,0.0148,0.0156,0.0173,0.0226,0.0232,0.022,0.0223,0.0225,0.0226,0,0,0,0,0,0,0,-0.0072,-0.0067,-0.0031,-0.003,-0.0025,0.0007,0.0014,0.0052,0.0094,0.0048,0.0052,0.0057,0.0151,0.0168,0.0176,0.0233,0.022,0.0224,0.0227,0.0228,0.0312,0.0312,0,0,0,0,0,0,-0.009,-0.007,-0.0033,-0.0029,-0.0047,0.0007,0.0015,0.0019,0.0093,0.0104,0.0056,0.006,0.0161,0.0171,0.018,0.0203,0.0225,0.0229,0.0231,0.0313,0.0312,0.0312,0,0,0,0,0,0,-0.0091,-0.0088,-0.0037,-0.0049,-0.0041,0.0007,0.0011,0.002,0.0037,0.0099,0.0111,0.0063,0.0162,0.0174,0.0213,0.0208,0.0231,0.0234,0.0313,0.0312,0.0312,0.0246,0,0,0,0,0,0,-0.0093,-0.0088,-0.0093,-0.0051,-0.0041,-0.0027,0.001,0.0021,0.0038,0.0043,0.0109,0.0121,0.0163,0.0207,0.0217,0.0214,0.0238,0.0313,0.0313,0.0312,0.0249,0.0244,0.0239,0,0,0,0,0,-0.0095,-0.0111,-0.0094,-0.009,-0.0049,-0.0028,-0.002,0.0018,0.0037,0.0037,0.0087,0.0118,0.0211,0.021,0.0223,0.022,0.0313,0.0313,0.0312,0.0251,0.0245,0.0239,0,0,0,0,0,0,-0.0136,-0.0105,-0.0086,-0.0091,-0.0065,-0.0019,-0.0018,0.001,0.005,0.0056,0.0118,0.0133,0.0163,0.02,0.0197,0.0242,0.0266,0.0268,0.0215,0.0209,0.0205,0.0193,0.0241,0,0,0,0,0,-0.0148,-0.0149,-0.0112,-0.0117,-0.0109,-0.0063,-0.0051,-0.0025,0.0015,0.0033,0.0079,0.0128,0.017,0.0195,0.0233,0.0261,0.0309,0.0266,0.0262,0.0257,0.0256,0.0327,0.0329,0.031,0.031,0.031,0,0,-0.0165,-0.0149,-0.0149,-0.0126,-0.0102,-0.0099,-0.0054,-0.0043,-0.0032,0.0039,0.0064,0.011,0.0172,0.0202,0.0218,0.0233,0.0286,0.0256,0.0252,0.0254,0.0327,0.0329,0.0331,0.0309,0.0309,0.0309,0,0,-0.0208,-0.0187,-0.0205,-0.0188,-0.0163,-0.0131,-0.0132,-0.0089,-0.0064,-0.0035,0.002,0.0065,0.0122,0.0172,0.0203,0.0196,0.0254,0.0201,0.0175,0.0244,0.0246,0.0249,0.0304,0.0312,0.0204,0.0204,0.0204,0,-0.0232,-0.0245,-0.0207,-0.022,-0.021,-0.0152,-0.0165,-0.0131,-0.0079,-0.0056,-0.0039,0.0062,0.011,0.0165,0.0162,0.0186,0.0229,0.0191,0.0238,0.0242,0.0246,0.0302,0.0312,0.02,0.0201,0.0201,0.0201,0,-0.0285,-0.0294,-0.0305,-0.0296,-0.0279,-0.0283,-0.0233,-0.0209,-0.017,-0.0127,-0.0071,0.0003,0.0066,0.0086,0.0123,0.0172,0.0195,0.0219,0.0251,0.0244,0.0303,0.0315,0.0196,0.0197,0.0198,0.0199,0,0,-0.0341,-0.0344,-0.0347,-0.0357,-0.032,-0.0315,-0.0292,-0.0252,-0.023,-0.0171,-0.0133,-0.0057,-0.0008,0.0031,0.009,0.0151,0.0213,0.0189,0.0194,0.0241,0.0358,0.0399,0.0416,0.0247,0.0249,0.0251,0.0386,0,-0.0395,-0.0442,-0.0417,-0.0447,-0.0463,-0.0401,-0.0382,-0.0332,-0.0274,-0.0222,-0.0129,-0.0075,-0.003,0.0004,0.007,0.0181,0.0242,0.0174,0.0361,0.0367,0.0403,0.0431,0.0465,0.0591,0.0398,0.04,0.0401,0,-0.0454,-0.0477,-0.0522,-0.052,-0.052,-0.0518,-0.0467,-0.0444,-0.0347,-0.0301,-0.0221,-0.0141,-0.004,-0.0004,0.018,0.0134,0.0234,0.0319,0.0327,0.0397,0.043,0.057,0.062,0.0778,0.042,0.0418,0.0417,0,-0.0516,-0.0546,-0.0584,-0.0586,-0.0572,-0.0569,-0.0548,-0.0468,-0.0444,-0.0344,-0.0306,-0.0175,-0.0098,0.004,0.0215,0.0201,0.0421,0.0429,0.0559,0.0563,0.0646,0.0655,0.0872,0.0555,0.0555,0.0554,0.0554,0,-0.0583,-0.0614,-0.0619,-0.0645,-0.0677,-0.0633,-0.0633,-0.0591,-0.0516,-0.0478,-0.0354,-0.0284,-0.0082,0.0071,0.0213,0.043,0.0426,0.0565,0.0609,0.0623,0.0627,0.0811,0.0859,0.0559,0.0558,0.0557,0.0556,0,-0.0647,-0.0652,-0.07,-0.0707,-0.0713,-0.0731,-0.0709,-0.0699,-0.0619,-0.0563,-0.0533,-0.0352,-0.0142,0.0064,0.0314,0.0436,0.0735,0.0703,0.0699,0.074,0.0991,0.1031,0.1271,0.1372,0.0867,0.0869,0.087,0,-0.0685,-0.0718,-0.0759,-0.0789,-0.0799,-0.0815,-0.0821,-0.0762,-0.0741,-0.0597,-0.0572,-0.0357,-0.0179,0.0199,0.0461,0.0737,0.0843,0.0909,0.089,0.1026,0.1105,0.1126,0.1194,0.0974,0.0977,0.0979,0.098,0,-0.0754,-0.0762,-0.0802,-0.0872,-0.0901,-0.0927,-0.0927,-0.0926,-0.0832,-0.075,-0.0589,-0.043,-0.0046,0.0311,0.0661,0.0812,0.1027,0.0956,0.1117,0.1226,0.1247,0.1357,0.0849,0.0997,0.0996,0.0994,0.0994,0.0993,-0.0791,-0.0836,-0.0886,-0.0947,-0.0988,-0.1019,-0.1026,-0.0986,-0.0929,-0.0765,-0.0611,-0.0312,0.0177,0.0694,0.0882,0.1257,0.12,0.1352,0.1396,0.1409,0.1498,0.1016,0.1197,0.1196,0.1196,0.1195,0.1195,0,-0.0838,-0.0886,-0.0956,-0.1022,-0.1073,-0.1074,-0.1078,-0.1038,-0.0948,-0.0737,-0.053,0.0049,0.053,0.0967,0.1486,0.1689,0.1733,0.1773,0.1825,0.1879,0.1486,0.1483,0.171,0.171,0.171,0.171,0.1709,0.1709,-0.0862,-0.0942,-0.0982,-0.1076,-0.1115,-0.1144,-0.1137,-0.1035,-0.0877,-0.0505,-0.0149,0.0148,0.074,0.1567,0.2051,0.2087,0.227,0.2234,0.234,0.2072,0.2036,0.2002,0.2014,0.2349,0.2349,0.2727,0.2731,0.2734]}],[{"header":{"parameterUnit":"m.s-1","parameterCategory":2,"la1":30.2991,"la2":30.254,"lo1":-89.0895,"lo2":-89.0444,"dy":0.0017,"dx":0.0017,"nx":28,"ny":28,"refTime":"2024-06-03T03:00:00:Z","depth":"2","parameterNumber":2,"parameterNumberName":"U-component_of_CURRENTS"},"data":[0,0,0,0,0,0,0,0,0,0,0,0,0,0,0,0,0,0,0,0,0,0,0,0,0,0,0,0,0,0,0,0,0,0,0,0,0,0,0,0,0,0,0,0,0,0,0,0,0,0,0,0,0,0,0,0,0,0,-0.225,-0.225,0,-0.2289,-0.229,-0.229,-0.228,-0.2279,-0.2279,-0.2278,-0.2255,-0.2255,-0.2255,0,0,0,0,0,0,0,0,0,0,0,0,0,-0.2159,-0.2161,-0.225,-0.225,-0.2251,-0.2289,-0.229,-0.229,-0.228,-0.2279,-0.2279,-0.2278,-0.2255,-0.2255,-0.2255,0,0,0,0,0,0,0,0,0,0,0,0,0,-0.2196,-0.2161,-0.225,-0.2253,-0.2253,-0.2289,-0.229,-0.229,-0.228,-0.2279,-0.2278,-0.2278,-0.2256,-0.2255,-0.2255,-0.2271,0,0,-0.2255,-0.2255,0,0,0,0,0,0,0,0,-0.2194,-0.2199,-0.2251,-0.2252,-0.2254,-0.2281,-0.225,-0.2281,-0.228,-0.2267,-0.2278,-0.2277,-0.2261,-0.226,-0.2266,-0.227,-0.2269,-0.2255,-0.2255,-0.2255,-0.2255,0,0,0,0,0,0,0,-0.2192,-0.2198,-0.2263,-0.2252,-0.2254,-0.225,-0.2254,-0.2256,-0.2265,-0.2268,-0.2268,-0.2277,-0.226,-0.2267,-0.2266,-0.2268,-0.2255,-0.2255,-0.2255,-0.2255,-0.2298,-0.2299,0,0,0,0,0,0,-0.2194,-0.2195,-0.2262,-0.2264,-0.2224,-0.2253,-0.2257,-0.2271,-0.2266,-0.2266,-0.2278,-0.2277,-0.2267,-0.2266,-0.2265,-0.2297,-0.2255,-0.2255,-0.2254,-0.2297,-0.2298,-0.2299,0,0,0,0,0,0,-0.2192,-0.2199,-0.226,-0.2232,-0.224,-0.2255,-0.2271,-0.2272,-0.2279,-0.2275,-0.2272,-0.2283,-0.2267,-0.2265,-0.2274,-0.2295,-0.2254,-0.2254,-0.2295,-0.2297,-0.2299,-0.2353,0,0,0,0,0,0,-0.2189,-0.2198,-0.2203,-0.2233,-0.2242,-0.2287,-0.2272,-0.2274,-0.2287,-0.2285,-0.2278,-0.2275,-0.2266,-0.2275,-0.2274,-0.2295,-0.2254,-0.2293,-0.2296,-0.2298,-0.2349,-0.2356,-0.2362,0,0,0,0,0,-0.2186,-0.22,-0.2203,-0.2211,-0.225,-0.2288,-0.2293,-0.2298,-0.2288,-0.2299,-0.2294,-0.2276,-0.2289,-0.2276,-0.2275,-0.2296,-0.2292,-0.2295,-0.2298,-0.2347,-0.2355,-0.2362,0,0,0,0,0,0,-0.2161,-0.2202,-0.2206,-0.223,-0.2259,-0.2288,-0.2297,-0.2302,-0.2309,-0.2304,-0.229,-0.2288,-0.2305,-0.2295,-0.2281,-0.2316,-0.2288,-0.2291,-0.2325,-0.2333,-0.2339,-0.2335,-0.2254,0,0,0,0,0,-0.216,-0.218,-0.2219,-0.2238,-0.2254,-0.2275,-0.2288,-0.2299,-0.2312,-0.2314,-0.2311,-0.231,-0.2318,-0.232,-0.2323,-0.2341,-0.2319,-0.2355,-0.2361,-0.2367,-0.2363,-0.2363,-0.2369,-0.2308,-0.2308,-0.2308,0,0,-0.2153,-0.218,-0.2189,-0.2233,-0.2253,-0.2289,-0.228,-0.231,-0.2336,-0.2311,-0.2333,-0.233,-0.2328,-0.2351,-0.2357,-0.2343,-0.2371,-0.237,-0.2375,-0.2368,-0.2367,-0.2372,-0.2377,-0.231,-0.231,-0.231,0,0,-0.2161,-0.2178,-0.2201,-0.2233,-0.2274,-0.2295,-0.2306,-0.234,-0.2349,-0.2377,-0.2367,-0.2377,-0.2387,-0.2394,-0.2397,-0.244,-0.2405,-0.2442,-0.247,-0.2471,-0.2476,-0.248,-0.2452,-0.2453,-0.2446,-0.2446,-0.2446,0,-0.2149,-0.2188,-0.2213,-0.2252,-0.2277,-0.23,-0.2336,-0.2359,-0.2391,-0.24,-0.2389,-0.2413,-0.2409,-0.244,-0.2455,-0.2454,-0.2437,-0.2441,-0.2479,-0.2482,-0.2485,-0.2455,-0.2456,-0.2449,-0.2449,-0.2448,-0.2448,0,-0.2184,-0.2214,-0.2233,-0.2289,-0.2321,-0.2355,-0.2398,-0.2423,-0.2433,-0.245,-0.2477,-0.2478,-0.2487,-0.2497,-0.2488,-0.2515,-0.2489,-0.2486,-0.2457,-0.2494,-0.2461,-0.246,-0.2453,-0.2452,-0.2451,-0.245,0,0,-0.2146,-0.2238,-0.2241,-0.2271,-0.2342,-0.237,-0.2423,-0.247,-0.2492,-0.2518,-0.2538,-0.2564,-0.2553,-0.2556,-0.2552,-0.2555,-0.256,-0.253,-0.2529,-0.2497,-0.2539,-0.2457,-0.2447,-0.2563,-0.2564,-0.2564,-0.2504,0,-0.2158,-0.223,-0.2276,-0.2334,-0.2372,-0.2419,-0.2464,-0.251,-0.2534,-0.2559,-0.2571,-0.2585,-0.2581,-0.2579,-0.2588,-0.2568,-0.2562,-0.2575,-0.2511,-0.2509,-0.2427,-0.2445,-0.2272,-0.2199,-0.2503,-0.2502,-0.2502,0,-0.2164,-0.2216,-0.2279,-0.2356,-0.2376,-0.2415,-0.2476,-0.2518,-0.2569,-0.2587,-0.2611,-0.2614,-0.2631,-0.2613,-0.2603,-0.261,-0.2576,-0.2556,-0.2554,-0.2455,-0.2425,-0.2213,-0.2185,-0.2501,-0.2501,-0.2501,-0.2501,0,-0.2112,-0.2204,-0.225,-0.2281,-0.2381,-0.2409,-0.2452,-0.2516,-0.2548,-0.2592,-0.2612,-0.2635,-0.2636,-0.262,-0.2586,-0.2592,-0.2554,-0.2557,-0.2449,-0.2442,-0.2269,-0.2246,-0.2538,-0.2538,-0.2538,-0.2538,-0.2538,0,-0.2098,-0.2128,-0.2228,-0.2254,-0.2295,-0.2375,-0.2416,-0.2463,-0.2529,-0.2552,-0.2608,-0.2619,-0.2638,-0.2623,-0.2588,-0.2508,-0.2554,-0.2446,-0.2424,-0.2282,-0.2262,-0.2508,-0.2505,-0.2536,-0.2536,-0.2537,-0.2537,0,-0.2025,-0.2098,-0.2146,-0.2246,-0.2271,-0.2292,-0.2383,-0.2412,-0.249,-0.252,-0.2534,-0.2603,-0.2577,-0.2576,-0.2537,-0.2496,-0.2435,-0.2392,-0.2211,-0.2169,-0.232,-0.2321,-0.2266,-0.2262,-0.226,-0.2257,-0.2255,0,-0.1994,-0.2014,-0.2107,-0.2126,-0.2166,-0.2219,-0.2253,-0.236,-0.239,-0.2491,-0.2488,-0.2512,-0.2487,-0.2418,-0.234,-0.2252,-0.2338,-0.2055,-0.2042,-0.2309,-0.2294,-0.2299,-0.2304,-0.1829,-0.1824,-0.1819,-0.1816,0,-0.1912,-0.1943,-0.1979,-0.2028,-0.2065,-0.2109,-0.2164,-0.2196,-0.2308,-0.2346,-0.2374,-0.237,-0.2316,-0.2157,-0.2068,-0.1994,-0.206,-0.1963,-0.2282,-0.1933,-0.1895,-0.1881,-0.19,-0.1777,-0.1781,-0.1784,-0.1786,-0.1787,-0.182,-0.1821,-0.1868,-0.1898,-0.1943,-0.1972,-0.1958,-0.2032,-0.2064,-0.2079,-0.2171,-0.2096,-0.2082,-0.1844,-0.1746,-0.1663,-0.1798,-0.1725,-0.174,-0.1758,-0.1727,-0.1687,-0.1523,-0.1525,-0.1527,-0.1529,-0.153,0,-0.1695,-0.1712,-0.1735,-0.1765,-0.1755,-0.183,-0.1867,-0.1828,-0.1805,-0.1848,-0.1834,-0.164,-0.1546,-0.1531,-0.1346,-0.1315,-0.1309,-0.1262,-0.1264,-0.1302,-0.1336,-0.1285,-0.0962,-0.096,-0.0959,-0.0957,0,0,-0.1628,-0.1601,-0.162,-0.1559,-0.1577,-0.1511,-0.1499,-0.1463,-0.1456,-0.1384,-0.1336,-0.1447,-0.1484,-0.1229,-0.1169,-0.104,-0.1159,-0.0982,-0.1434,-0.1474,-0.1506,-0.1595,-0.1558,0,0,0,0,0]},{"header":{"parameterUnit":"m.s-1","parameterCategory":2,"la1":30.2991,"la2":30.254,"lo1":-89.0895,"lo2":-89.0444,"dy":0.0017,"dx":0.0017,"nx":28,"ny":28,"refTime":"2024-06-03T03:00:00:Z","depth":"2","parameterNumber":3,"parameterNumberName":"V-component_of_CURRENTS"},"data":[0,0,0,0,0,0,0,0,0,0,0,0,0,0,0,0,0,0,0,0,0,0,0,0,0,0,0,0,0,0,0,0,0,0,0,0,0,0,0,0,0,0,0,0,0,0,0,0,0,0,0,0,0,0,0,0,0,0,-0.0158,-0.0158,0,-0.0084,-0.0083,-0.0082,-0.0025,-0.0025,-0.0024,-0.0024,0.0091,0.0094,0.0097,0,0,0,0,0,0,0,0,0,0,0,0,0,-0.0205,-0.0204,-0.0158,-0.0158,-0.0157,-0.0085,-0.0083,-0.0082,-0.0025,-0.0025,-0.0024,-0.0024,0.009,0.0094,0.0097,0,0,0,0,0,0,0,0,0,0,0,0,0,-0.0161,-0.0204,-0.0159,-0.0122,-0.0118,-0.0085,-0.0083,-0.0082,-0.0025,-0.0025,-0.0024,-0.0024,0.0089,0.0093,0.0097,0.0113,0,0,0.011,0.0112,0,0,0,0,0,0,0,0,-0.0164,-0.0159,-0.0128,-0.0124,-0.012,-0.0066,-0.0057,-0.0015,-0.0025,-0.0058,-0.0024,-0.0023,0.0041,0.0049,0.0065,0.0119,0.0123,0.011,0.0113,0.0115,0.0116,0,0,0,0,0,0,0,-0.0167,-0.0162,-0.0127,-0.0127,-0.0122,-0.0093,-0.0087,-0.0049,-0.001,-0.0055,-0.0051,-0.0047,0.0044,0.006,0.0068,0.0125,0.011,0.0114,0.0117,0.0118,0.0209,0.0209,0,0,0,0,0,0,-0.0184,-0.0165,-0.0129,-0.0125,-0.0144,-0.0093,-0.0086,-0.0081,-0.0011,-0.0,-0.0047,-0.0045,0.0053,0.0063,0.0072,0.0099,0.0115,0.0119,0.0121,0.0209,0.0209,0.0209,0,0,0,0,0,0,-0.0185,-0.0181,-0.0132,-0.0145,-0.0137,-0.0094,-0.0089,-0.008,-0.0064,-0.0006,0.0006,-0.004,0.0054,0.0066,0.0106,0.0103,0.012,0.0124,0.0209,0.0209,0.0209,0.0149,0,0,0,0,0,0,-0.0187,-0.0182,-0.0186,-0.0146,-0.0137,-0.0122,-0.0089,-0.0079,-0.0063,-0.0059,0.0004,0.0015,0.0055,0.01,0.0111,0.0109,0.0127,0.0209,0.0209,0.0209,0.0152,0.0147,0.0144,0,0,0,0,0,-0.0188,-0.0201,-0.0186,-0.0182,-0.0143,-0.0123,-0.0115,-0.008,-0.0064,-0.0062,-0.0015,0.0013,0.0106,0.0103,0.0116,0.0116,0.0209,0.0209,0.0209,0.0153,0.0148,0.0144,0,0,0,0,0,0,-0.0226,-0.0196,-0.0178,-0.0182,-0.0157,-0.0114,-0.0113,-0.0087,-0.0048,-0.0043,0.0016,0.003,0.0062,0.0097,0.0092,0.0141,0.0161,0.0163,0.0115,0.011,0.0106,0.0092,0.0131,0,0,0,0,0,-0.0236,-0.0235,-0.0201,-0.0204,-0.0196,-0.0154,-0.0142,-0.0118,-0.008,-0.0063,-0.0018,0.003,0.0071,0.0096,0.0134,0.0164,0.0204,0.0171,0.0167,0.0164,0.016,0.0224,0.0225,0.0208,0.0208,0.0208,0,0,-0.0251,-0.0236,-0.0234,-0.0211,-0.0189,-0.0185,-0.0145,-0.0133,-0.0122,-0.0056,-0.0029,0.0015,0.0074,0.0107,0.0124,0.0137,0.0189,0.0163,0.016,0.0159,0.0224,0.0225,0.0227,0.0208,0.0208,0.0208,0,0,-0.0289,-0.0268,-0.0283,-0.0266,-0.0242,-0.0213,-0.0213,-0.0173,-0.0148,-0.0117,-0.0067,-0.0022,0.0036,0.0083,0.0114,0.0112,0.0162,0.0119,0.0095,0.0156,0.0158,0.016,0.0206,0.0213,0.0122,0.0122,0.0122,0,-0.031,-0.032,-0.0284,-0.0293,-0.0284,-0.0231,-0.0241,-0.0208,-0.0158,-0.0136,-0.012,-0.0022,0.0026,0.008,0.0079,0.0104,0.0141,0.0106,0.015,0.0154,0.0157,0.0204,0.0213,0.0119,0.0119,0.0119,0.012,0,-0.0356,-0.0362,-0.0371,-0.036,-0.0343,-0.0346,-0.0297,-0.0275,-0.0238,-0.0198,-0.0144,-0.0072,-0.0012,0.001,0.0046,0.0092,0.011,0.0134,0.016,0.0155,0.0205,0.0215,0.0115,0.0116,0.0117,0.0117,0,0,-0.0408,-0.0406,-0.0408,-0.0417,-0.0379,-0.0374,-0.035,-0.0313,-0.0294,-0.0235,-0.0202,-0.0124,-0.0079,-0.0042,0.0015,0.007,0.0125,0.0105,0.011,0.0146,0.0251,0.0284,0.0298,0.0157,0.0158,0.016,0.0274,0,-0.0457,-0.0496,-0.0471,-0.0496,-0.051,-0.0451,-0.0432,-0.0385,-0.0332,-0.0284,-0.0196,-0.0145,-0.0099,-0.0069,-0.0006,0.0095,0.0149,0.0091,0.0254,0.0259,0.0286,0.031,0.0271,0.0372,0.0283,0.0285,0.0286,0,-0.0509,-0.0528,-0.0567,-0.0565,-0.0565,-0.0562,-0.0517,-0.0494,-0.0405,-0.0362,-0.0287,-0.0213,-0.0118,-0.0082,0.0085,0.0045,0.0136,0.0214,0.0221,0.028,0.0311,0.0365,0.0393,0.0303,0.0302,0.0301,0.03,0,-0.057,-0.0594,-0.0629,-0.0629,-0.0614,-0.0611,-0.0593,-0.0519,-0.0498,-0.0406,-0.0374,-0.0251,-0.0181,-0.0054,0.0109,0.0099,0.0294,0.0305,0.042,0.0423,0.0437,0.0439,0.0418,0.0418,0.0418,0.0418,0.0417,0,-0.0633,-0.0661,-0.0663,-0.0686,-0.0718,-0.0675,-0.0678,-0.0639,-0.0571,-0.054,-0.0422,-0.0361,-0.017,-0.0031,0.0102,0.0297,0.0294,0.0423,0.0462,0.0414,0.0413,0.039,0.0385,0.0422,0.0421,0.042,0.0419,0,-0.0696,-0.0697,-0.0742,-0.0747,-0.0752,-0.0772,-0.0753,-0.0746,-0.0673,-0.0626,-0.0599,-0.0432,-0.0242,-0.0049,0.018,0.0294,0.0471,0.0536,0.0462,0.0491,0.0555,0.0546,0.0674,0.0676,0.0678,0.068,0.0681,0,-0.0734,-0.0764,-0.08,-0.083,-0.0838,-0.0855,-0.0862,-0.0808,-0.079,-0.0664,-0.0643,-0.0449,-0.0292,0.0053,0.0293,0.0544,0.0535,0.0637,0.0617,0.056,0.0585,0.0573,0.0561,0.0609,0.0609,0.061,0.061,0,-0.0804,-0.0811,-0.0848,-0.0914,-0.0942,-0.0966,-0.0967,-0.0968,-0.0883,-0.0813,-0.0674,-0.0534,-0.019,0.0101,0.0421,0.055,0.0594,0.0657,0.0639,0.0547,0.0508,0.0529,0.0518,0.0615,0.0615,0.0614,0.0614,0.0614,-0.0846,-0.0889,-0.0936,-0.0994,-0.1031,-0.1058,-0.1069,-0.1033,-0.0987,-0.0848,-0.0706,-0.0457,-0.0185,0.029,0.0503,0.0692,0.0688,0.0721,0.0716,0.0711,0.068,0.0647,0.0773,0.0774,0.0774,0.0774,0.0775,0,-0.0899,-0.0945,-0.1012,-0.1073,-0.1121,-0.112,-0.1123,-0.1093,-0.102,-0.0841,-0.0661,-0.0344,-0.0002,0.0274,0.0593,0.0777,0.0744,0.0782,0.0706,0.07,0.0695,0.066,0.075,0.075,0.0751,0.0751,0,0,-0.0927,-0.1006,-0.1043,-0.1135,-0.1172,-0.1206,-0.1201,-0.1122,-0.099,-0.0811,-0.0605,-0.0313,0.0026,0.0246,0.0467,0.0626,0.0608,0.0625,0.0623,0.0499,0.0492,0.0637,0.0574,0,0,0,0,0]}],[{"header":{"parameterUnit":"m.s-1","parameterCategory":2,"la1":30.2991,"la2":30.254,"lo1":-89.0895,"lo2":-89.0444,"dy":0.0017,"dx":0.0017,"nx":28,"ny":28,"refTime":"2024-06-03T03:00:00:Z","depth":"4","parameterNumber":2,"parameterNumberName":"U-component_of_CURRENTS"},"data":[0,0,0,0,0,0,0,0,0,0,0,0,0,0,0,0,0,0,0,0,0,0,0,0,0,0,0,0,0,0,0,0,0,0,0,0,0,0,0,0,0,0,0,0,0,0,0,0,0,0,0,0,0,0,0,0,0,0,-0.1606,-0.1607,0,-0.1676,-0.1677,-0.1677,-0.172,-0.172,-0.172,-0.1721,-0.1776,-0.1777,-0.1779,0,0,0,0,0,0,0,0,0,0,0,0,0,-0.1503,-0.1505,-0.1606,-0.1607,-0.1608,-0.1676,-0.1677,-0.1678,-0.1719,-0.172,-0.172,-0.1721,-0.1776,-0.1777,-0.1779,0,0,0,0,0,0,0,0,0,0,0,0,0,-0.1556,-0.1505,-0.1606,-0.1639,-0.1642,-0.1676,-0.1677,-0.1678,-0.1719,-0.172,-0.172,-0.1721,-0.1776,-0.1777,-0.1779,-0.1779,0,0,-0.1784,-0.1785,0,0,0,0,0,0,0,0,-0.1553,-0.156,-0.1633,-0.1637,-0.1641,-0.1691,-0.1661,-0.1711,-0.1719,-0.1688,-0.1721,-0.1721,-0.1747,-0.1751,-0.1761,-0.1781,-0.1784,-0.1784,-0.1785,-0.1786,-0.1787,0,0,0,0,0,0,0,-0.1549,-0.1557,-0.1632,-0.1634,-0.1639,-0.1648,-0.1656,-0.1671,-0.1712,-0.1691,-0.1695,-0.1705,-0.1749,-0.1759,-0.1763,-0.1784,-0.1784,-0.1786,-0.1787,-0.1787,-0.1886,-0.1888,0,0,0,0,0,0,-0.1544,-0.1554,-0.163,-0.1634,-0.1599,-0.1649,-0.1658,-0.1673,-0.1713,-0.172,-0.1705,-0.1707,-0.1756,-0.1761,-0.1765,-0.1843,-0.1786,-0.1788,-0.1789,-0.1885,-0.1887,-0.1888,0,0,0,0,0,0,-0.1542,-0.1551,-0.1627,-0.1597,-0.1607,-0.1651,-0.1667,-0.1674,-0.1712,-0.1723,-0.173,-0.1738,-0.1757,-0.1762,-0.1808,-0.1842,-0.1788,-0.179,-0.1883,-0.1885,-0.1888,-0.195,0,0,0,0,0,0,-0.1539,-0.1549,-0.1571,-0.1596,-0.1609,-0.1667,-0.1667,-0.1675,-0.1716,-0.1721,-0.1753,-0.1758,-0.1757,-0.1805,-0.1809,-0.1844,-0.1791,-0.1881,-0.1884,-0.1887,-0.1946,-0.1954,-0.1961,0,0,0,0,0,-0.1535,-0.1558,-0.1571,-0.1581,-0.1633,-0.1669,-0.1677,-0.1707,-0.1718,-0.1741,-0.1767,-0.1758,-0.1827,-0.1808,-0.1813,-0.1848,-0.1879,-0.1883,-0.1887,-0.1942,-0.1952,-0.1961,0,0,0,0,0,0,-0.1526,-0.1565,-0.1581,-0.1616,-0.165,-0.1677,-0.1705,-0.1723,-0.1761,-0.1773,-0.1779,-0.1786,-0.1837,-0.1835,-0.1814,-0.1885,-0.1852,-0.1856,-0.1892,-0.1902,-0.1909,-0.1899,-0.1793,0,0,0,0,0,-0.1533,-0.1563,-0.1598,-0.163,-0.1648,-0.1681,-0.1705,-0.1728,-0.1759,-0.1778,-0.1801,-0.1826,-0.1851,-0.1871,-0.189,-0.193,-0.1907,-0.1955,-0.1963,-0.197,-0.1965,-0.1969,-0.1976,-0.19,-0.19,-0.19,0,0,-0.1539,-0.1565,-0.1584,-0.1631,-0.1659,-0.1697,-0.1698,-0.1743,-0.1782,-0.1776,-0.1841,-0.1856,-0.1867,-0.1915,-0.1937,-0.1921,-0.1979,-0.1974,-0.198,-0.1971,-0.1973,-0.1981,-0.1987,-0.1903,-0.1902,-0.1902,0,0,-0.1557,-0.159,-0.162,-0.1653,-0.1704,-0.1726,-0.1745,-0.1791,-0.1822,-0.1878,-0.1884,-0.192,-0.1964,-0.1978,-0.1988,-0.2049,-0.2018,-0.2062,-0.2095,-0.21,-0.2106,-0.2111,-0.2084,-0.2086,-0.2067,-0.2067,-0.2067,0,-0.1565,-0.1606,-0.1635,-0.1672,-0.1705,-0.1742,-0.1782,-0.1819,-0.1878,-0.1902,-0.191,-0.1977,-0.1991,-0.2036,-0.206,-0.2066,-0.2052,-0.2059,-0.2109,-0.2113,-0.2117,-0.2088,-0.209,-0.2071,-0.207,-0.207,-0.207,0,-0.1599,-0.1643,-0.1664,-0.1724,-0.1763,-0.1806,-0.1856,-0.1904,-0.1943,-0.1972,-0.2034,-0.2055,-0.2088,-0.2107,-0.2104,-0.2146,-0.212,-0.2116,-0.2082,-0.2128,-0.2095,-0.2095,-0.2076,-0.2074,-0.2073,-0.2072,0,0,-0.1579,-0.167,-0.168,-0.1716,-0.1796,-0.1826,-0.1899,-0.1961,-0.2001,-0.206,-0.2102,-0.2156,-0.2161,-0.2172,-0.2178,-0.2188,-0.2205,-0.2169,-0.2167,-0.2134,-0.2194,-0.2051,-0.2037,-0.2213,-0.2214,-0.2214,-0.2157,0,-0.1597,-0.1668,-0.1714,-0.1789,-0.1827,-0.1889,-0.1948,-0.2011,-0.206,-0.211,-0.2142,-0.2183,-0.2189,-0.2205,-0.2221,-0.2209,-0.221,-0.2219,-0.216,-0.2158,-0.2019,-0.2034,-0.2216,-0.2157,-0.2157,-0.2157,-0.2157,0,-0.1603,-0.1655,-0.1729,-0.1817,-0.1841,-0.1895,-0.1984,-0.2039,-0.2114,-0.215,-0.2198,-0.2217,-0.2252,-0.2243,-0.2247,-0.2254,-0.2228,-0.2213,-0.221,-0.2051,-0.2014,-0.2103,-0.2157,-0.2157,-0.2157,-0.2157,-0.2157,0,-0.1557,-0.1657,-0.1717,-0.175,-0.1859,-0.1908,-0.1966,-0.2052,-0.2094,-0.2169,-0.2199,-0.2244,-0.2263,-0.2257,-0.2235,-0.2245,-0.2214,-0.2219,-0.2062,-0.2051,-0.217,-0.2166,-0.2209,-0.2209,-0.2209,-0.2209,-0.221,0,-0.1536,-0.1586,-0.1704,-0.1736,-0.1802,-0.1888,-0.1957,-0.2019,-0.21,-0.2129,-0.2209,-0.222,-0.227,-0.2261,-0.2235,-0.2134,-0.2213,-0.2054,-0.2026,-0.2197,-0.2197,-0.2169,-0.2166,-0.2207,-0.2208,-0.2208,-0.2208,0,-0.1466,-0.155,-0.1619,-0.1743,-0.1781,-0.1824,-0.1939,-0.1977,-0.2072,-0.2109,-0.2133,-0.2208,-0.2184,-0.2201,-0.2175,-0.2112,-0.2044,-0.1989,-0.2149,-0.2134,-0.1877,-0.1877,-0.18,-0.1795,-0.179,-0.1786,-0.1783,0,-0.1431,-0.1465,-0.1597,-0.1634,-0.1694,-0.1775,-0.1822,-0.194,-0.1967,-0.2071,-0.2061,-0.2095,-0.2118,-0.1963,-0.2001,-0.1925,-0.1909,-0.1865,-0.1888,-0.1853,-0.1835,-0.1843,-0.185,-0.1775,-0.1774,-0.1773,-0.1772,0,-0.1354,-0.1416,-0.1471,-0.1549,-0.1612,-0.1667,-0.1739,-0.1752,-0.1862,-0.1968,-0.1931,-0.1912,-0.1879,-0.185,-0.1804,-0.1757,-0.1891,-0.1816,-0.1826,-0.1847,-0.1822,-0.1811,-0.1823,-0.1755,-0.1758,-0.1759,-0.176,0,-0.1286,-0.1302,-0.1381,-0.1433,-0.1512,-0.153,-0.1591,-0.1614,-0.1657,-0.1774,-0.1747,-0.1785,-0.1848,-0.1759,-0.1713,-0.1656,-0.1636,-0.1593,-0.1614,-0.1632,-0.1605,-0.155,-0.1361,0,0,0,0,0,-0.1204,-0.121,-0.1255,-0.1307,-0.1383,-0.1418,-0.1516,-0.1579,-0.1688,-0.1612,-0.1677,-0.1633,-0.1577,-0.1599,-0.15,-0.1634,-0.1644,-0.1515,-0.1608,-0.1665,-0.1684,-0.1667,0,0,0,0,0,0,-0.1148,-0.1186,-0.1207,-0.1186,-0.1195,-0.1252,-0.1309,-0.1389,-0.1355,-0.147,-0.144,-0.1524,-0.1485,-0.1591,-0.1459,-0.1463,-0.1488,-0.1543,-0.1539,-0.1654,-0.1671,-0.1686,-0.1676,0,0,0,0,0]},{"header":{"parameterUnit":"m.s-1","parameterCategory":2,"la1":30.2991,"la2":30.254,"lo1":-89.0895,"lo2":-89.0444,"dy":0.0017,"dx":0.0017,"nx":28,"ny":28,"refTime":"2024-06-03T03:00:00:Z","depth":"4","parameterNumber":3,"parameterNumberName":"V-component_of_CURRENTS"},"data":[0,0,0,0,0,0,0,0,0,0,0,0,0,0,0,0,0,0,0,0,0,0,0,0,0,0,0,0,0,0,0,0,0,0,0,0,0,0,0,0,0,0,0,0,0,0,0,0,0,0,0,0,0,0,0,0,0,0,-0.0147,-0.0147,0,-0.0096,-0.0095,-0.0094,-0.0056,-0.0056,-0.0056,-0.0056,0.0039,0.0041,0.0044,0,0,0,0,0,0,0,0,0,0,0,0,0,-0.0178,-0.0178,-0.0147,-0.0147,-0.0146,-0.0096,-0.0095,-0.0094,-0.0056,-0.0056,-0.0056,-0.0056,0.0038,0.0041,0.0044,0,0,0,0,0,0,0,0,0,0,0,0,0,-0.0147,-0.0178,-0.0147,-0.0123,-0.012,-0.0096,-0.0095,-0.0094,-0.0056,-0.0056,-0.0056,-0.0056,0.0037,0.0041,0.0044,0.0063,0,0,0.0055,0.0057,0,0,0,0,0,0,0,0,-0.0149,-0.0146,-0.0127,-0.0125,-0.0122,-0.0084,-0.0071,-0.004,-0.0056,-0.0078,-0.0056,-0.0056,0.0,0.0007,0.0019,0.0067,0.0071,0.0056,0.0058,0.0059,0.006,0,0,0,0,0,0,0,-0.0151,-0.0148,-0.0124,-0.0127,-0.0123,-0.0103,-0.0099,-0.0065,-0.0038,-0.0076,-0.0074,-0.0072,0.0002,0.0015,0.0021,0.0073,0.0056,0.0059,0.0061,0.0062,0.0152,0.0152,0,0,0,0,0,0,-0.0164,-0.015,-0.0126,-0.0123,-0.0138,-0.0103,-0.0098,-0.0095,-0.0039,-0.0032,-0.0072,-0.0071,0.0009,0.0017,0.0025,0.0052,0.0059,0.0063,0.0065,0.0152,0.0152,0.0152,0,0,0,0,0,0,-0.0165,-0.0163,-0.0128,-0.0137,-0.0132,-0.0103,-0.01,-0.0094,-0.0083,-0.0037,-0.0028,-0.0068,0.0009,0.002,0.0056,0.0056,0.0064,0.0068,0.0152,0.0152,0.0152,0.0106,0,0,0,0,0,0,-0.0166,-0.0163,-0.0167,-0.0138,-0.0132,-0.0121,-0.01,-0.0093,-0.0083,-0.008,-0.0031,-0.0021,0.001,0.005,0.006,0.0061,0.0071,0.0151,0.0152,0.0152,0.0107,0.0104,0.0102,0,0,0,0,0,-0.0167,-0.0176,-0.0167,-0.0165,-0.0137,-0.0121,-0.0116,-0.0093,-0.0083,-0.0082,-0.0044,-0.0023,0.0059,0.0053,0.0064,0.0067,0.0151,0.0152,0.0152,0.0108,0.0105,0.0102,0,0,0,0,0,0,-0.0194,-0.0173,-0.0162,-0.0164,-0.0147,-0.0116,-0.0116,-0.0098,-0.0067,-0.0064,-0.0018,-0.0006,0.0024,0.0053,0.0046,0.0094,0.0108,0.0111,0.0071,0.0068,0.0066,0.0049,0.0074,0,0,0,0,0,-0.0202,-0.0201,-0.0177,-0.0179,-0.0174,-0.0145,-0.0137,-0.0121,-0.0091,-0.0078,-0.0042,-0.0002,0.0035,0.0057,0.009,0.0119,0.0148,0.0128,0.0125,0.0123,0.0117,0.0167,0.0169,0.0154,0.0154,0.0154,0,0,-0.0213,-0.0202,-0.0202,-0.0185,-0.0171,-0.0166,-0.0139,-0.0132,-0.0123,-0.0071,-0.0049,-0.0011,0.004,0.0071,0.0087,0.0096,0.0141,0.0124,0.0121,0.0117,0.0168,0.0169,0.0171,0.0154,0.0154,0.0154,0,0,-0.024,-0.0227,-0.0237,-0.0224,-0.0208,-0.0187,-0.0188,-0.0158,-0.0141,-0.0114,-0.0074,-0.0035,0.0016,0.0056,0.0083,0.0089,0.0124,0.0098,0.0077,0.0125,0.0127,0.0128,0.0159,0.0164,0.01,0.01,0.01,0,-0.0257,-0.0264,-0.0238,-0.0243,-0.0238,-0.0201,-0.0209,-0.0183,-0.0143,-0.0128,-0.0115,-0.0032,0.0011,0.0058,0.006,0.0084,0.0109,0.0082,0.0121,0.0123,0.0126,0.0157,0.0163,0.0098,0.0098,0.0098,0.0098,0,-0.0286,-0.0293,-0.0299,-0.0291,-0.0279,-0.0282,-0.0246,-0.023,-0.0204,-0.0173,-0.0129,-0.0067,-0.0018,0.0004,0.0036,0.0075,0.0086,0.0108,0.0125,0.0124,0.0157,0.0164,0.0095,0.0095,0.0096,0.0097,0,0,-0.0325,-0.0322,-0.0326,-0.0336,-0.0307,-0.0305,-0.0286,-0.026,-0.0251,-0.02,-0.0179,-0.0106,-0.0073,-0.0041,0.0008,0.0055,0.0096,0.0083,0.0087,0.0106,0.019,0.0178,0.0185,0.0125,0.0126,0.0127,0.0203,0,-0.036,-0.0388,-0.037,-0.0393,-0.0404,-0.0364,-0.0351,-0.0317,-0.0278,-0.0246,-0.0172,-0.0133,-0.0089,-0.0066,-0.0012,0.0071,0.0113,0.0073,0.0194,0.0197,0.0181,0.0192,0.0131,0.0208,0.021,0.0211,0.0212,0,-0.0396,-0.0412,-0.0444,-0.045,-0.0451,-0.0453,-0.043,-0.0413,-0.0347,-0.0316,-0.0258,-0.0198,-0.012,-0.0085,0.0051,0.0021,0.0095,0.016,0.0165,0.0174,0.0198,0.0213,0.0225,0.0224,0.0223,0.0222,0.0221,0,-0.0442,-0.0464,-0.0496,-0.0497,-0.0491,-0.0497,-0.0489,-0.0438,-0.0427,-0.036,-0.0339,-0.0239,-0.0185,-0.0079,0.0056,0.0054,0.0204,0.0221,0.0278,0.0278,0.0286,0.0283,0.031,0.031,0.031,0.0309,0.0309,0,-0.0483,-0.0513,-0.0526,-0.0545,-0.0582,-0.0552,-0.0569,-0.0543,-0.0498,-0.0478,-0.0385,-0.034,-0.018,-0.0071,0.0043,0.018,0.0196,0.0273,0.03,0.0263,0.0258,0.029,0.0287,0.0312,0.0312,0.0311,0.0311,0,-0.0527,-0.0535,-0.0579,-0.0596,-0.0608,-0.0633,-0.0636,-0.0637,-0.0589,-0.0559,-0.054,-0.0411,-0.0264,-0.0107,0.0079,0.0159,0.0294,0.0337,0.0275,0.0298,0.0335,0.0329,0.0401,0.0401,0.0402,0.0402,0.0402,0,-0.0551,-0.0578,-0.063,-0.0663,-0.0679,-0.0708,-0.0723,-0.0691,-0.0681,-0.0595,-0.0579,-0.0439,-0.0335,-0.0083,0.0076,0.0285,0.0315,0.0369,0.0361,0.0327,0.0347,0.034,0.0333,0.0402,0.0403,0.0403,0.0403,0,-0.0598,-0.0618,-0.0655,-0.0728,-0.0766,-0.0796,-0.081,-0.0807,-0.0748,-0.0713,-0.0591,-0.0446,-0.0281,-0.0082,0.0082,0.0231,0.0326,0.0372,0.0373,0.0365,0.033,0.0347,0.034,0.0403,0.0403,0.0403,0.0403,0,-0.0631,-0.0671,-0.0725,-0.0783,-0.0838,-0.0859,-0.0857,-0.0819,-0.0795,-0.0684,-0.0644,-0.045,-0.0331,-0.0109,0.0042,0.0187,0.0221,0.0254,0.0261,0.0262,0.0199,0.0132,0.0169,0,0,0,0,0,-0.0657,-0.0706,-0.0773,-0.0831,-0.0883,-0.0909,-0.0905,-0.0882,-0.0823,-0.0743,-0.0686,-0.0522,-0.0271,-0.016,-0.0015,0.0028,0.0226,0.0198,0.0263,0.0408,0.0407,0.0356,0,0,0,0,0,0,-0.0676,-0.0746,-0.0781,-0.0856,-0.0901,-0.0944,-0.0939,-0.0895,-0.0832,-0.0754,-0.0615,-0.052,-0.0275,-0.0361,-0.0026,0.0019,0.0074,0.0322,0.0325,0.0409,0.0408,0.0407,0.0354,0,0,0,0,0]}]]